Location: Mahannah Oil Field
(37.4664°N, 96.6003°W)
Time: 10:08:48
(UTC+00:00)

deb Explorer IX - Pass Details

Date: 03 February 2021
Orbit: 538 x 1101 km, 38.8° (Epoch: 07 March)

Event Time Altitude Azimuth Distance (km) Brightness Sun altitude
Rises 02:39:21 0° 279° (W) 3,675 ? -33.4°
Reaches altitude 10° 02:43:02 10° 261° (W) 2,616 ? -34.1°
Maximum altitude 02:46:57 17° 222° (SW) 2,004 ? -34.9°
Enters shadow 02:47:58 17° 209° (SSW) 2,011 ? -35.1°
